Regional Weather Roundup
Issued by NWS Huntsville, AL

Home | Current Version | Previous Version | Text Only | Print | Product List | Glossary On
Versions: 1 2 3 4 5 6 7 8 9 10 11 12 13 14 15 16 17 18 19 20 21 22 23 24 25 26 27 28 29 30 31 32 33 34 35 36 37 38 39 40 41 42 43 44 45 46 47 48 49 50
199
ASUS44 KHUN 291910
RWRHUN

WEATHER ROUNDUP FOR THE TENNESSEE VALLEY
NATIONAL WEATHER SERVICE HUNTSVILLE AL
200 PM CDT FRI JUL 29 2016

ALZ001>004-292000-
NORTHWEST ALABAMA

CITY           SKY/WX    TMP DP  RH WIND       PRES   REMARKS
COURTLAND HCN    N/A     82 N/A N/A W5          N/A
RUSSELLVILLE     N/A     82 N/A N/A MISG        N/A
SHOALS AIRPORT MOSUNNY   86  72  62 SW8       29.99F HX  92
SHOALS TVA RES   N/A     86 N/A N/A MISG        N/A
$$

ALZ005>007-016-292000-
NORTH CENTRAL ALABAMA

CITY           SKY/WX    TMP DP  RH WIND       PRES   REMARKS
CULLMAN AG STN   N/A     84 N/A N/A CALM        N/A
DECATUR AP     CLOUDY    85  73  67 SW9       30.00F HX  91
HUNTSVILLE AP  CLOUDY    86  70  58 SW12      30.00F HX  90
HUN NWS/UAH      N/A     86  70  58 SW7         N/A  HX  90
MERIDIANVILLE  MOSUNNY   86  63  45 SW6       30.00F
REDSTONE ARSN  CLOUDY    84  74  70 W9        29.99F HX  91
VINEMONT AP      N/A    N/A N/A N/A MISG        N/A
$$

ALZ008>010-292000-
NORTHEAST ALABAMA

CITY           SKY/WX    TMP DP  RH WIND       PRES   REMARKS
ALBERTVILLE    CLOUDY    84  77  79 W10       30.02F HX  94
FORT PAYNE     PTSUNNY   79  70  73 W3        30.01S
SCOTTSBORO AP  MOSUNNY   84  73  70 SW7       30.00F HX  91
SCOTTSBORO HCN   N/A     86 N/A N/A MISG        N/A
VALLEY HEAD      N/A     81 N/A N/A MISG        N/A
$$

TNZ076-096-097-292000-
SOUTHEASTERN MIDDLE TENNESSEE

CITY           SKY/WX    TMP DP  RH WIND       PRES   REMARKS
TULLAHOMA      MOSUNNY   86  72  62 W9        30.01F HX  92
WINCHESTER     MOSUNNY   84  72  65 SW10      30.00F
$$

...SURROUNDING SITES...

CITY           SKY/WX    TMP DP  RH WIND       PRES   REMARKS
ATLANTA        PTSUNNY   91  69  48 W9        30.01F HX  96
ANNISTON       MOSUNNY   90  67  46 W12G18    30.01F HX  93
BIRMINGHAM     PTSUNNY   88  71  57 NW9       30.03F HX  94
CHATTANOOGA    CLOUDY    89  68  49 SW10      29.98F HX  93
DALTON         LGT RAIN  75  73  94 S7        30.00S
GADSDEN        PTSUNNY   86  72  62 W7        30.01  HX  92
GOLDEN TRNGL   PTSUNNY   88  70  55 W5        30.00F HX  92
HALEYVILLE     FAIR      81  72  74 SW9       30.04F
JACKSON TN     CLOUDY    86  76  71 W9        29.96F HX  96
MEMPHIS        PTSUNNY   87  76  69 SW7       29.95F HX  97
NASHVILLE      MOSUNNY   87  72  60 W13G18    29.96F HX  93
OXFORD MS      PTSUNNY   84  73  70 SW8       30.00F HX  91
ROME           CLOUDY    88  68  51 W10G17    29.98F HX  91
SAVANNAH       CLOUDY    86  75  70 W8        29.97S HX  95
TUPELO         CLOUDY    85  71  63 S10       29.99F HX  90
TUSCALOOSA     PTSUNNY   86  71  60 W9        30.00F HX  91
$$

...GULF COAST WEATHER...

CITY           SKY/WX    TMP DP  RH WIND       PRES   REMARKS
GULFPORT       HVY RAIN  77  73  87 S20G28    30.02F VSB 1/4
PASCAGOULA     SUNNY     90  78  68 S7        30.02F HX 104
MOBILE         LGT RAIN  80  75  84 SE7       30.03F
GULF SHORES    LGT RAIN  83  78  83 N5        30.04S HX  93
PENSACOLA      PTSUNNY   92  75  57 SW12      30.03F HX 103
DESTIN         MOSUNNY   94  79  61 VRB6      30.03F HX 111
PANAMA CITY    MOSUNNY   89  77  66 SW13      30.05S HX 102
APPALACHICOLA  MOSUNNY   92  78  63 SW14      30.04F HX 107
$$





USA.gov is the U.S. government's official web portal to all federal, state and local government web resources and services.